Location: Julian California
(33.0790°N, 116.6010°W)
Time: 01:52:46
(UTC-07:00)

Iridium 4 Rocket - Pass Details

Date: 19 May 2017
Orbit: 586 x 904 km, 86.9° (Epoch: 28 June)

Event Time Altitude Azimuth Distance (km) Brightness Sun altitude
Rises 20:42:09 0° 2° (N) 3,060 7.1 -11.8°
Reaches altitude 10° 20:44:21 10° 5° (N) 2,186 6.3 -12.2°
Maximum altitude 20:49:13 68° 88° (E) 814 3.4 -13.0°
Drops below altitude 10° 20:54:31 10° 172° (S) 2,381 5.6 -13.9°
Enters shadow 20:54:56 - 172° (S) 2,547 5.8 -14.0°
